Location: Unspecified
(0.0000°N, 0.0000°E)
Time: 18:08:49
(UTC+02:00)

Iridium 84 - Visible Passes

Search period start: 01 September 2015 00:00
Search period end: 11 September 2015 00:00
Orbit: 776 x 779 km, 86.4° (Epoch: 01 September)

Date Brightness Start Highest point End Pass type
(mag) Time Alt. Az. Time Alt. Az. Time Alt. Az.
01 Sep 5.5 20:46:37 10° S 20:51:52 89° WNW 20:57:04 10° N visible
02 Sep 6.0 20:13:32 10° SSE 20:18:23 40° E 20:23:15 10° NNE visible
02 Sep 8.8 21:57:45 10° WSW 21:59:03 11° W 21:59:52 10° WNW visible
03 Sep 7.9 21:21:11 10° SW 21:25:27 25° W 21:29:33 10° NW visible
04 Sep 6.3 20:46:50 10° SSW 20:51:55 55° W 20:57:00 10° NNW visible
05 Sep 5.5 20:13:17 10° S 20:18:27 66° E 20:23:37 10° N visible
06 Sep 8.6 21:22:29 10° SW 21:25:35 15° W 21:28:21 10° NW visible
07 Sep 7.4 20:47:19 10° SSW 20:52:01 33° W 20:56:38 10° NNW visible
08 Sep 5.8 20:13:19 10° S 20:18:32 76° W 20:23:42 10° N visible
09 Sep 8.7 07:08:14 10° NE 07:11:23 17° E 07:14:50 10° SE visible
10 Sep 8.4 20:48:12 10° SW 20:52:08 21° W 20:55:52 10° NW visible
